Location: Unspecified
(52.1971°N, 0.0000°E)
Time: 23:14:32
(UTC+00:00)

ISS - Pass Details

Date: 27 May 2019
Orbit: 408 x 418 km, 51.6° (Epoch: 16 June)

Event Time Altitude Azimuth Distance (km) Brightness Sun altitude
Rises 22:55:24 0° 282° (WNW) 2,362 0.4 -15.2°
Reaches altitude 10° 22:57:41 10° 270° (W) 1,498 -0.8 -15.3°
Enters shadow 23:00:32 26° 212° (SSW) 854 -2.6 -15.4°
